This is the latest recevied weather packets stored in our database for station/object W5GBS-9. If no packets are shown the sender has not sent any weather packets the latest 10 day(s).
| Time | Temp. | Humidity | Pressure | Rain* | Wind** | Luminosity | Snow |
|---|---|---|---|---|---|---|---|
| 1788060612 | 29.44° C | 100% | 1012.9 hPa | 0 mm | - | - | - |
| 1788059892 | 30° C | 100% | 1012.7 hPa | 0 mm | - | - | - |
| 1788059171 | 30° C | 100% | 1012.6 hPa | 0 mm | - | - | - |
| 1788058450 | 30° C | 100% | 1012.5 hPa | 0 mm | - | - | - |
| 1788057009 | 30.56° C | 100% | 1012.2 hPa | 0 mm | - | - | - |
| 1788056288 | 30.56° C | 100% | 1012 hPa | 0 mm | - | - | - |
| 1788055567 | 31.11° C | 100% | 1012 hPa | 0 mm | - | - | - |
| 1788054126 | 31.67° C | 100% | 1011.6 hPa | 0 mm | - | - | - |
| 1788053405 | 31.67° C | 100% | 1011.6 hPa | 0 mm | - | - | - |
| 1788052685 | 32.22° C | 100% | 1011.4 hPa | 0 mm | - | - | - |
| 1788051243 | 33.33° C | 100% | 1011.4 hPa | 0 mm | - | - | - |
| 1788049802 | 33.89° C | 100% | 1011.5 hPa | 0 mm | - | - | - |
| 1788048360 | 34.44° C | 100% | 1011.4 hPa | 0 mm | - | - | - |
| 1788047640 | 35° C | 100% | 1011.3 hPa | 0 mm | - | - | - |
| 1788046919 | 35° C | 100% | 1011.3 hPa | 0 mm | - | - | - |
| 1788044758 | 35.56° C | 100% | 1011.3 hPa | 0 mm | - | - | - |
| 1788044036 | 35.56° C | 100% | 1011.4 hPa | 0 mm | - | - | - |
| 1788043316 | 35.56° C | 100% | 1011.4 hPa | 0 mm | - | - | - |
| 1788042595 | 35.56° C | 100% | 1011.5 hPa | 0 mm | - | - | - |
| 1788039712 | 35° C | 100% | 1012.1 hPa | 0 mm | - | - | - |
| 1788036829 | 36.11° C | 100% | 1012.8 hPa | 0 mm | - | - | - |
| 1788033226 | 34.44° C | 100% | 1013.6 hPa | 0 mm | - | - | - |
| 1788031064 | 34.44° C | 100% | 1014.1 hPa | 0 mm | - | - | - |
| 1788029622 | 34.44° C | 100% | 1014.5 hPa | 0 mm | - | - | - |
| 1788028902 | 34.44° C | 100% | 1014.7 hPa | 0 mm | - | - | - |
* Rain latest hour (hover to see other rain measurements)
** Current wind speed in m/s (hover to see current wind gust speed)